Date String (YYYY-MM-DD hh:mm:ss) UTC,Instrument flags,Ambient pressure (hPa),Sample flow (lpm),Bypass flow (lpm),Sample temperature (°C),Ambient temperature (°C),ASC tube jacket temperature (°C),LED temperature (°C),Box temperature (°C),Sample RH (%),Mass concentration (μg/m³),Mass concentration (μg/m³)
DateTimeUTC,F1_M11,P_M11,Q1_M11,Q2_M11,T1_M11,T2_M11,T3_M11,T4_M11,T5_M11,U1_M11,X0_M11,X2_M11
2021-08-17 19:00:00,,0823.7,5.01,0.00,28.7,27.0,00.0,37.7,30.6,20.6,0035.31,0020.68
2021-08-17 19:01:00,,0823.7,5.00,0.00,28.8,27.4,00.0,37.8,30.7,20.8,0035.40,0020.70
2021-08-17 19:02:00,,0823.7,4.99,0.00,28.9,27.7,00.0,37.8,30.8,20.6,0037.30,0020.73
2021-08-17 19:03:00,,0823.7,4.99,0.00,28.9,27.0,00.0,37.8,30.6,20.3,0038.90,0020.69
2021-08-17 19:04:00,,0823.7,5.01,0.00,28.8,25.8,00.0,37.8,30.2,20.9,0039.99,0020.61
2021-08-17 19:05:00,,0823.7,5.00,0.00,28.7,25.9,00.0,37.8,30.2,21.0,0040.42,0020.63
2021-08-17 19:06:00,,0823.7,5.00,0.00,28.7,26.3,00.0,37.8,30.3,20.7,0039.86,0020.64
2021-08-17 19:07:00,,0823.7,5.00,0.00,28.7,26.7,00.0,37.7,30.4,21.5,0039.27,0020.76
2021-08-17 19:08:00,,0823.7,4.99,0.00,28.7,27.1,00.0,37.7,30.6,21.5,0039.51,0020.80
2021-08-17 19:09:00,,0823.7,5.01,0.00,28.8,27.4,00.0,37.8,30.7,20.8,0041.99,0020.83
2021-08-17 19:10:00,,0823.7,5.00,0.00,28.9,27.8,00.0,37.8,30.8,19.8,0042.40,0020.90
2021-08-17 19:11:00,,0823.7,5.00,0.00,28.9,27.1,00.0,37.8,30.6,19.3,0041.56,0020.94
2021-08-17 19:12:00,,0823.7,5.00,0.00,28.8,25.7,00.0,37.8,30.1,19.5,0042.27,0020.99
2021-08-17 19:13:00,,0823.7,5.00,0.00,28.7,25.8,00.0,37.8,30.2,19.9,0040.83,0021.03
2021-08-17 19:14:00,,0823.7,4.99,0.00,28.7,26.3,00.0,37.8,30.3,20.5,0039.59,0021.10
2021-08-17 19:15:00,,0823.7,5.01,0.00,28.7,26.7,00.0,37.7,30.4,20.7,0037.90,0021.15
2021-08-17 19:16:00,,0823.7,4.98,0.00,28.8,27.1,00.0,37.8,30.6,21.1,0037.99,0021.16
2021-08-17 19:17:00,,0823.7,5.00,0.00,28.8,27.4,00.0,37.8,30.7,21.2,0039.00,0021.18
2021-08-17 19:18:00,,0823.7,4.99,0.00,28.9,27.5,00.0,37.8,30.7,20.2,0039.09,0021.19
2021-08-17 19:19:00,,0823.6,5.01,0.00,28.8,26.2,00.0,37.8,30.3,19.9,0038.91,0021.28
2021-08-17 19:20:00,,0823.6,5.01,0.00,28.7,25.6,00.0,37.8,30.1,20.4,0037.47,0021.41
2021-08-17 19:21:00,,0823.7,4.99,0.00,28.7,26.1,00.0,37.8,30.3,20.4,0038.66,0021.46
2021-08-17 19:22:00,,0823.6,4.99,0.00,28.7,26.5,00.0,37.7,30.4,20.9,0040.13,0021.47
2021-08-17 19:23:00,,0823.6,5.01,0.00,28.7,26.9,00.0,37.7,30.5,20.3,0040.14,0021.48
2021-08-17 19:24:00,,0823.6,5.00,0.00,28.8,27.2,00.0,37.7,30.6,20.1,0039.25,0021.49
2021-08-17 19:25:00,,0823.5,5.02,0.00,28.8,27.6,00.0,37.8,30.7,19.2,0038.61,0021.47
2021-08-17 19:26:00,,0823.4,4.99,0.00,28.9,27.9,00.0,37.8,30.9,19.5,0038.09,0021.44
2021-08-17 19:27:00,,0823.4,5.00,0.00,28.9,27.1,00.0,37.8,30.6,19.1,0038.40,0021.53
2021-08-17 19:28:00,,0823.4,5.01,0.00,28.8,25.8,00.0,37.8,30.2,19.1,0037.55,0021.54
2021-08-17 19:29:00,,0823.4,5.00,0.00,28.7,25.9,00.0,37.8,30.2,19.6,0037.09,0021.55
2021-08-17 19:30:00,,0823.3,4.99,0.00,28.7,26.3,00.0,37.8,30.4,19.5,0036.69,0021.50
2021-08-17 19:31:00,,0823.4,5.00,0.00,28.7,26.7,00.0,37.8,30.5,18.5,0035.91,0021.39
2021-08-17 19:32:00,,0823.4,4.99,0.00,28.8,27.0,00.0,37.8,30.6,18.1,0034.50,0021.26
2021-08-17 19:33:00,,0823.4,5.01,0.00,28.8,27.4,00.0,37.8,30.7,18.2,0033.96,0021.16
2021-08-17 19:34:00,,0823.4,5.00,0.00,28.9,27.7,00.0,37.8,30.8,18.0,0033.14,0021.09
2021-08-17 19:35:00,,0823.4,5.00,0.00,28.9,27.1,00.0,37.8,30.6,18.4,0033.63,0021.01
2021-08-17 19:36:00,,0823.3,5.00,0.00,28.8,25.7,00.0,37.8,30.1,18.3,0033.26,0020.91
2021-08-17 19:37:00,,0823.4,4.99,0.00,28.7,25.8,00.0,37.8,30.2,18.4,0033.12,0020.82
2021-08-17 19:38:00,,0823.3,5.01,0.00,28.7,26.3,00.0,37.8,30.3,18.7,0032.49,0020.62
2021-08-17 19:39:00,,0823.4,5.00,0.00,28.7,26.7,00.0,37.8,30.5,18.3,0032.06,0020.53
2021-08-17 19:40:00,,0823.4,5.00,0.00,28.8,27.1,00.0,37.8,30.6,18.6,0032.04,0020.46
2021-08-17 19:41:00,,0823.3,5.01,0.00,28.8,27.5,00.0,37.8,30.7,18.3,0032.35,0020.44
2021-08-17 19:42:00,,0823.3,4.99,0.00,28.9,27.8,00.0,37.8,30.9,18.4,0032.64,0020.41
2021-08-17 19:43:00,,0823.4,5.01,0.00,29.0,27.8,00.0,37.8,30.9,18.0,0032.64,0020.48
2021-08-17 19:44:00,,0823.3,5.00,0.00,28.9,26.5,00.0,37.9,30.5,18.1,0031.31,0020.53
2021-08-17 19:45:00,,0823.4,5.01,0.00,28.8,25.8,00.0,37.8,30.3,17.7,0030.53,0020.56
2021-08-17 19:46:00,,0823.3,5.00,0.00,28.8,26.2,00.0,37.8,30.4,17.9,0030.05,0020.58
2021-08-17 19:47:00,,0823.3,4.99,0.00,28.8,26.6,00.0,37.8,30.5,18.3,0030.25,0020.64
2021-08-17 19:48:00,,0823.2,5.01,0.00,28.8,26.9,00.0,37.8,30.6,18.0,0030.28,0020.66
2021-08-17 19:49:00,,0823.2,5.00,0.00,28.9,27.3,00.0,37.8,30.7,18.1,0030.47,0020.77
2021-08-17 19:50:00,,0823.2,5.00,0.00,28.9,27.6,00.0,37.8,30.8,18.8,0030.77,0020.80
2021-08-17 19:51:00,,0823.3,5.00,0.00,29.0,27.7,00.0,37.9,30.9,17.8,0032.12,0020.79
2021-08-17 19:52:00,,0823.2,5.01,0.00,28.9,26.4,00.0,37.9,30.5,18.0,0031.83,0020.73
2021-08-17 19:53:00,,0823.2,4.99,0.00,28.8,25.7,00.0,37.8,30.2,17.7,0031.45,0020.66
2021-08-17 19:54:00,,0823.1,5.00,0.00,28.8,26.2,00.0,37.8,30.4,17.9,0031.17,0020.56
2021-08-17 19:55:00,,0823.1,5.00,0.00,28.8,26.5,00.0,37.8,30.4,17.5,0031.22,0020.47
2021-08-17 19:56:00,,0823.1,4.99,0.00,28.8,27.0,00.0,37.8,30.6,18.1,0031.09,0020.36
2021-08-17 19:57:00,,0823.1,5.00,0.00,28.9,27.3,00.0,37.8,30.7,18.4,0031.44,0020.26
2021-08-17 19:58:00,,0823.1,5.00,0.00,28.9,27.7,00.0,37.9,30.9,17.8,0031.58,0020.20
2021-08-17 19:59:00,,0823.1,5.01,0.00,29.0,27.7,00.0,37.9,30.9,17.8,0033.15,0020.13
